Regional Weather Roundup
Issued by NWS

Home | Current Version | Previous Version | Graphics & Text | Print | Product List | Glossary On
Versions: 1 2 3 4 5 6 7 8 9 10 11 12 13 14 15 16 17 18 19 20 21 22 23 24 25 26 27 28 29 30 31 32 33 34 35 36 37 38 39 40 41 42 43 44 45 46 47 48 49 50
000
ASUS43 KLOT 060700
RWRIL

ILLINOIS REGIONAL WEATHER ROUNDUP
NATIONAL WEATHER SERVICE CHICAGO/ROMEOVILLE IL
100 AM CST FRI MAR 06 2015

NOTE: "FAIR" INDICATES FEW OR NO CLOUDS BELOW 12,000 FEET WITH NO
SIGNIFICANT WEATHER AND/OR OBSTRUCTIONS TO VISIBILITY.

* THESE STATIONS ARE NOT UNDER NWS QUALITY CONTROL. THEY ALSO MAY NOT
  REPORT WEATHER SUCH AS PRECIPITATION OR FOG.

ILZ001-002-007-009-015-016-024-060800-
NORTHWEST ILLINOIS

CITY           SKY/WX    TMP DP  RH WIND       PRES   REMARKS
MOLINE         PTCLDY     0  -6  76 CALM      30.50F
STERLING*      CLEAR     -6 -15  65 CALM      30.49F
$$

ILZ003-004-008-010-011-017-018-060800-
NORTH CENTRAL ILLINOIS

CITY           SKY/WX    TMP DP  RH WIND       PRES   REMARKS
ROCKFORD       PTCLDY    -1  -7  75 S5        30.50F WCI -11
$$

ILZ005-006-012>014-019>023-060800-
NORTHEAST ILLINOIS

CITY           SKY/WX    TMP DP  RH WIND       PRES   REMARKS
CHICAGO-OHARE  PTCLDY     5  -4  66 W6        30.50F WCI  -6
CHICAGO-MIDWAY PTCLDY     7  -2  66 SW7       30.52F WCI  -5
AURORA         PTCLDY     1  -6  72 SW3       30.51F
WAUKEGAN       PTCLDY    -2  -7  79 SW6       30.48F WCI -14
DUPAGE AIRPORT PTCLDY     2  -5  72 SW5       30.49F WCI  -8
WHEELING       PTCLDY     6  -3  66 SW3       30.52F
NORTHERLY ISL    N/A     10   0  63 W9          N/A  WCI  -3
$$

LMZ740>746-060800-
SOUTHERN LAKE MICHIGAN

STATION/POSITION SKY/WX   TEMP    WIND        PRES    VSBY  WAVE
                          AIR SEA DIR/SP/G                  HT/PER
                          (F)     (DEG/KT/KT) (MB)    (MI)  (FT/S)
WAUKEGAN HARBOR             7                   N/A
HARRISON CRIB              11     260/ 14/ 17   N/A
BURNHAM HARBOR             11     270/  8/ 11   N/A
CALUMET HARBOR              9     230/  6/ 10 1032.4F
MICHIGAN CITY               8     180/  9/ 10   N/A
$$

ILZ025>027-034>036-040-047-049-050-058-095>099-060800-
WEST-CENTRAL ILLINOIS

CITY           SKY/WX    TMP DP  RH WIND       PRES   REMARKS
QUINCY         CLEAR      9  -1  64 S5        30.51F WCI   1
$$

ILZ028>032-037-038-041>044-048-051>054-059>061-060800-
CENTRAL ILLINOIS

CITY           SKY/WX    TMP DP  RH WIND       PRES   REMARKS
DECATUR        PTCLDY    -6  -9  86 CALM      30.56S
PEORIA         PTCLDY     4  -4  69 CALM      30.54F
SPRINGFIELD    PTCLDY     1  -4  79 CALM      30.56F
TAYLORVILLE    NOT AVBL
$$

ILZ033-039-045-046-055>057-062-063-060800-
EAST-CENTRAL ILLINOIS

CITY           SKY/WX    TMP DP  RH WIND       PRES   REMARKS
CHAMPAIGN      PTCLDY    -2  -6  83 CALM      30.55S FOG
MATTOON        PTCLDY     0  -4  83 CALM      30.55F
$$

ILZ079-100>102-060800-
SOUTHWEST ILLINOIS

CITY           SKY/WX    TMP DP  RH WIND       PRES   REMARKS
BELLEVILLE     CLEAR     10   8  92 S2        30.58F
CAHOKIA*       CLEAR     15   8  73 SE6       30.59F WCI   6
$$

ILZ064>066-069>071-074>076-080>082-084>086-088>090-092>094-060800-
SOUTH-CENTRAL ILLINOIS

CITY           SKY/WX    TMP DP  RH WIND       PRES   REMARKS
CARBONDALE     CLEAR      3  -1  83 CALM      30.60F
MT. VERNON     PTCLDY     3  -2  78 CALM      30.59S
$$

ILZ067-068-072-073-078-083-087-091-060800-
SOUTHEAST ILLINOIS

CITY           SKY/WX    TMP DP  RH WIND       PRES   REMARKS
LAWRENCEVILLE  MOCLDY     6   1  80 CALM      30.60F
$$

ABBREVIATIONS USED IN REMARKS
   TC - TEMPERATURE IN CELSIUS
  WCI - WIND CHILL INDEX
   HX - HEAT INDEX
  VSB - VISIBILITY
$$



USA.gov is the U.S. government's official web portal to all federal, state and local government web resources and services.